Back to catalog

ATLAS 5 CENTAUR DEB

LostHEO
NORAD 49370·DEBRIS·🇺🇸 United States

Launched Oct 17, 2018 from Cape Canaveral Space Force Station

Loading…

Next Passes (next 24 hours)

TLE

StaleSource: Space-Track

Epoch: Jun 2, 2024, 20:18 UTC

1 49370U 18079FX  24154.84628976 -.00000111  00000-0  00000+0 0  9997
2 49370  13.3932  77.8560 4663616 222.5415  89.9218  1.85774280 18864

Track ATLAS 5 CENTAUR DEB in real time with AllMySat

Download on the App Store